Location: D�rnast
(49.6426°N, 11.9755°E)
Time: 06:25:08
(UTC+00:00)

BlueWalker 3 - Pass Details

Date: 06 December 2022
Orbit: 499 x 517 km, 53.2° (Epoch: 28 January)

Event Time Altitude Azimuth Distance (km) Brightness Sun altitude
Rises 17:58:52 0° 293° (WNW) 2,630 6.5 -25.8°
Reaches altitude 10° 18:01:05 10° 291° (WNW) 1,737 5.5 -26.2°
Enters shadow 18:03:52 42° 272° (W) 742 3.1 -26.7°
